Home   Weather   Behbahan   Past weeks

Flag for Iran Past Weather in Behbahan, Iran — Yesterday and Last 2 Weeks

Now
90 °F

Clear.


Feels Like: 86 °F
Forecast: 69 / 98 °F
Wind: 7 mph from Northwest

Location: Gach Saran Du Gunbadan

Current Time: Apr 26, 2017 at 8:29:07 pm

Latest Report: Apr 26, 2017 at 7:30 pm


Visibility: 6 mi

Pressure: 29.92 "Hg

Humidity: 13%

Dew Point: 32 °F

Location of BehbahanLocation

Past Weather in Behbahan — Graph

°F

Behbahan Temperature Yesterday

Maximum temperature yesterday: 90 °F (at 11:30 am)
Minimum temperature yesterday: 70 °F (at 4:30 am)
Average temperature yesterday: 79 °F

High & Low Weather Summary for the Past Weeks

 TemperatureHumidityPressure
High99 °F (Apr 13, 4:30 pm)69% (Apr 17, 9:30 pm)30.09 "Hg (Apr 17, 9:30 pm)
Low55 °F (Apr 21, 6:30 am)4% (Apr 22, 2:30 pm)29.83 "Hg (Apr 24, 4:30 pm)
Average79 °F25%29.97 "Hg
* Reported Apr 11 6:30 pm — Apr 26 6:30 pm, Behbahan, Weather by CustomWeather, © 2017

Note: Actual official high and low records may vary slightly from our data, if they occured in-between our weather recording intervals... More about our weather records

Advertising

Behbahan Weather History for the Previous 24 Hours

Scroll right to see more
 ConditionsComfort  
Time TempWeatherWind HumidityBarometerVisibility
6:30 pm
Wed, Apr 26
91 °FClear.9 mph14%29.92 "Hg6 mi
5:30 pm91 °FSunny.9 mph13%29.95 "Hg10 mi
4:30 pm91 °FSunny.12 mph14%29.95 "Hg10 mi
3:30 pm93 °FSunny.12 mph13%29.95 "Hg10 mi
2:30 pm93 °FSunny.12 mph12%29.98 "Hg10 mi
1:30 pm93 °FSunny.12 mph13%29.98 "Hg10 mi
12:30 pm91 °FSunny.9 mph14%30.01 "Hg10 mi
11:30 am90 °FSunny.7 mph16%30.01 "Hg10 mi
10:30 am88 °FSunny.No wind18%30.01 "Hg10 mi
9:30 am81 °FSunny.No wind24%29.98 "Hg10 mi
8:30 am79 °FSunny.No wind28%29.98 "Hg10 mi
7:30 am66 °FSunny.No wind46%29.95 "Hg10 mi
6:30 am66 °FClear.No wind43%29.92 "Hg10 mi
5:30 am66 °FClear.No wind40%29.92 "Hg10 mi
4:30 am66 °FClear.No wind40%29.92 "Hg10 mi
3:30 am66 °FClear.No wind37%29.92 "Hg10 mi
2:30 am70 °FClear.No wind33%29.92 "Hg10 mi
1:30 am68 °FClear.No wind38%29.95 "Hg10 mi
12:30 am70 °FClear.No wind38%29.95 "Hg10 mi
11:30 pm
Tue, Apr 25
70 °FClear.No wind35%29.95 "Hg10 mi
10:30 pm73 °FClear.No wind31%29.95 "Hg10 mi
9:30 pm77 °FClear.No wind28%29.95 "Hg10 mi
8:30 pm79 °FClear.7 mph26%29.92 "Hg10 mi
Weather by CustomWeather, © 2017

See weather overviewHow to use our weather pages